This is the latest recevied weather packets stored in our database for station/object F4AMY-13. If no packets are shown the sender has not sent any weather packets the latest 10 day(s).
| Time | Temp. | Humidity | Pressure | Rain* | Wind** | Luminosity | Snow |
|---|---|---|---|---|---|---|---|
| 1777365678 | 17.22° C | 79% | 1014.1 hPa | 0 mm | 19.22 m/s, ° | 43 W/m² | - |
| 1777365378 | 16.67° C | 81% | 1014 hPa | 0 mm | 24.14 m/s, ° | 54 W/m² | - |
| 1777365078 | 16.67° C | 82% | 1014.1 hPa | 0 mm | 34.42 m/s, ° | 77 W/m² | - |
| 1777364778 | 16.67° C | 81% | 1014.1 hPa | 0 mm | 21.01 m/s, ° | 47 W/m² | - |
| 1777364478 | 16.11° C | 82% | 1014 hPa | 0 mm | 20.12 m/s, ° | 45 W/m² | - |
| 1777364178 | 16.11° C | 82% | 1013.9 hPa | 0 mm | 28.16 m/s, ° | 63 W/m² | - |
| 1777363878 | 15.56° C | 83% | 1014.2 hPa | 0 mm | 21.9 m/s, ° | 49 W/m² | - |
| 1777363578 | 15.56° C | 85% | 1014 hPa | 0 mm | 18.33 m/s, ° | 41 W/m² | - |
| 1777363278 | 15° C | 85% | 1014 hPa | 0 mm | 17.88 m/s, ° | 40 W/m² | - |
| 1777362977 | 15° C | 86% | 1013.7 hPa | 0 mm | 17.88 m/s, ° | 40 W/m² | - |
| 1777362677 | 15° C | 86% | 1013.8 hPa | 0 mm | 17.88 m/s, ° | 40 W/m² | - |
| 1777362377 | 14.44° C | 86% | 1014 hPa | 0 mm | 14.31 m/s, ° | 32 W/m² | - |
| 1777362077 | 14.44° C | 87% | 1013.9 hPa | 0 mm | 24.14 m/s, ° | 54 W/m² | - |
| 1777361777 | 13.89° C | 88% | 1014.1 hPa | 0 mm | 30.85 m/s, ° | 69 W/m² | - |
| 1777361477 | 13.89° C | 89% | 1014 hPa | 0 mm | 21.01 m/s, ° | 47 W/m² | - |
| 1777361177 | 13.33° C | 89% | 1013.9 hPa | 0 mm | 13.86 m/s, ° | 31 W/m² | - |
| 1777360877 | 13.33° C | 90% | 1013.9 hPa | 0 mm | 12.52 m/s, ° | 28 W/m² | - |
| 1777360577 | 13.33° C | 91% | 1014 hPa | 0 mm | 11.62 m/s, ° | 26 W/m² | - |
| 1777360277 | 12.78° C | 91% | 1013.9 hPa | 0 mm | 11.62 m/s, ° | 26 W/m² | - |
| 1777359977 | 12.78° C | 92% | 1013.9 hPa | 0 mm | 11.62 m/s, ° | 26 W/m² | - |
| 1777359677 | 12.78° C | 93% | 1014.1 hPa | 0 mm | 17.43 m/s, ° | 39 W/m² | - |
| 1777359377 | 12.78° C | 93% | 1014.1 hPa | 0 mm | 17.43 m/s, ° | 39 W/m² | - |
| 1777359077 | 12.78° C | 93% | 1014 hPa | 0 mm | 18.33 m/s, ° | 41 W/m² | - |
| 1777358777 | 12.78° C | 93% | 1013.9 hPa | 0 mm | 16.99 m/s, ° | 38 W/m² | - |
| 1777358476 | 12.22° C | 94% | 1013.9 hPa | 0 mm | 16.09 m/s, ° | 36 W/m² | - |
* Rain latest hour (hover to see other rain measurements)
** Current wind speed in m/s (hover to see current wind gust speed)